Regional Weather Roundup
Issued by NWS

Home | Current Version | Previous Version | Graphics & Text | Print | Product List | Glossary On
Versions: 1 2 3 4 5 6 7 8 9 10 11 12 13 14 15 16 17 18 19 20 21 22 23 24 25 26 27
000
ASUS45 KPSR 200110
RWRAZ

ARIZONA HOURLY REGIONAL WEATHER ROUNDUP
NATIONAL WEATHER SERVICE PHOENIX AZ
600 PM MST THU OCT 19 2017

NOTE: FAIR INDICATES FEW OR NO CLOUDS BELOW 12,000 FEET WITH NO
SIGNIFICANT WEATHER AND/OR OBSTRUCTIONS TO VISIBILITY.

AZZ001>003-036-200200-
NORTHWEST ARIZONA

CITY           SKY/WX    TMP DP  RH WIND       PRES   REMARKS
BULLHEAD CITY  PTCLDY    91  27   9 S7        29.66S
KINGMAN        FAIR      76  36  23 SW10      29.85F
$$

AZZ004>008-015-016-018-200200-
NORTH CENTRAL ARIZONA

CITY           SKY/WX    TMP DP  RH WIND       PRES   REMARKS
GRAND CANYON   MOCLDY    65  29  25 SW6       30.03S
WILLIAMS       PTCLDY    63  28  27 SW10G16   30.05R
PRESCOTT       CLEAR     70  33  25 SW8       29.96S
FLAGSTAFF      PTCLDY    61  27  27 SW13      30.07S
PAYSON           N/A     70  32  24 S6        29.99S
PAGE           CLOUDY    72  32  23 CALM      29.87F
$$

AZZ009>014-017-200200-
NORTHEAST ARIZONA

CITY           SKY/WX    TMP DP  RH WIND       PRES   REMARKS
WINSLOW        PTCLDY    71  36  27 S13       29.95S
SAINT JOHNS    MOCLDY    62  39  42 SE6       30.04S
WINDOW ROCK    CLOUDY    60  35  39 S5        30.09F
SHOW LOW       CLEAR     59  36  41 S6        30.09R
$$

AZZ540-542>544-546-548-200200-
GREATER PHOENIX AREA

CITY           SKY/WX    TMP DP  RH WIND       PRES   REMARKS
PHOENIX        PTCLDY    91  43  18 W14       29.71R
BUCKEYE        PTCLDY    84  41  21 SW7       29.72S
GLENDALE       PTCLDY    90  43  19 SW5       29.73S
LUKE AFB       PTCLDY    87  44  21 SW6       29.70S
DEER VALLEY    CLEAR     88  41  19 W10         N/A
SCOTTSDALE     CLEAR     89  38  16 W5        29.75S
MESA-FALCON    PTCLDY    90  39  17 S3        29.74S
MESA-GATEWAY   PTCLDY    88  37  16 CALM      29.74S
CHANDLER       PTCLDY    90  37  15 SW6       29.72S
$$

AZZ539-553-200200-
SOUTHWEST MARICOPA COUNTY AND PINAL COUNTY

CITY           SKY/WX    TMP DP  RH WIND       PRES   REMARKS
CASA GRANDE    NOT AVBL
GILA BEND      PTCLDY    90  36  14 W5        29.71S
$$

AZZ503-504-507>509-200200-
SOUTHEAST ARIZONA

CITY           SKY/WX    TMP DP  RH WIND       PRES   REMARKS
TUCSON         PTCLDY    87  36  16 SW10      29.85R
DAVIS-MONTHAN  MOCLDY    86  36  17 SW7       29.83R
RYAN FIELD     CLEAR     86  34  15 SW7       29.83R
NOGALES        MOCLDY    78  35  21 SW6       29.93F
SIERRA VISTA   CLEAR     77  30  18 SW14      29.99S
DOUGLAS        PTCLDY    79  26  14 SW14      29.94R
SAFFORD        CLEAR     79  40  24 E3        29.85S
$$

AZZ532-200200-
SOUTHWEST ARIZONA

CITY           SKY/WX    TMP DP  RH WIND       PRES   REMARKS
YUMA           MOCLDY    90  42  18 S5        29.69S
$$

CAZ041-043-047-048-061-525>527-560>570-200200-
SOUTHERN CALIFORNIA

CITY           SKY/WX    TMP DP  RH WIND       PRES   REMARKS
DOWNTOWN L.A.  CLEAR     72  59  63 CALM      29.85F
L.A. AIRPORT   PTCLDY    67  62  84 SW7       29.86F
SAN DIEGO      CLOUDY    69  61  75 W7        29.89S
BURBANK        CLEAR     69  57  65 S12       29.85F
ONTARIO        PTCLDY    71  58  63 W10       29.86S
RIVERSIDE      PTCLDY    70  60  70 W7        29.86S
PALM SPRINGS   PTCLDY    87  37  17 W15G30    29.72R
EL CENTRO NAS  CLOUDY    87  32  14 W25G32    29.71R
IMPERIAL       CLOUDY    87  33  14 W17G26    29.68R
BLYTHE         MOCLDY    90  35  14 SW6       29.68S
NEEDLES        CLEAR     93  32  11 SW12      29.68S
$$

NVZ020-UTZ003-200200-
SOUTHERN NEVADA-UTAH

CITY           SKY/WX    TMP DP  RH WIND       PRES   REMARKS
LAS VEGAS      CLEAR     85  30  13 SW12      29.72F
SALT LAKE CITY MOCLDY    62  38  40 W5        29.82F
$$

NMZ009-TXZ055-200200-
NEW MEXICO-WEST TEXAS

CITY           SKY/WX    TMP DP  RH WIND       PRES   REMARKS
ALBUQUERQUE    CLOUDY    65  43  44 W20G31    30.07R
EL PASO        MOCLDY    80  41  24 S6        29.94R
$$


........................KEY........................
SKY/WX - SKY CONDITION/WEATHER
TMP    - TEMPERATURE IN FAHRENHEIT
DP     - DEW POINT IN FAHRENHEIT
RH     - RELATIVE HUMIDITY IN PERCENT
WIND   - DIRECTION AND SPEED IN MILES PER HOUR (MPH)
VRB    - VARIABLE WIND DIRECTION
PRES   - MEAN SEA LEVEL PRESSURE IN INCHES OF MERCURY
         F - FALLING PRESSURE   R - RISING PRESSURE
         S - STEADY PRESSURE
VSB    - VISIBILITY IN MILES
HX     - HEAT INDEX IN FAHRENHEIT
WCI    - WIND CHILL INDEX IN FAHRENHEIT
TC     - TEMPERATURE IN CELSIUS WHICH IS ALSO KNOWN AS
         TEMPERATURE IN CENTIGRADE
AFB    - AIR FORCE BASE
         LUKE AFB IS LUKE AIR FORCE BASE
         DAVIS-MONTHAN IS DAVIS-MONTHAN AIR FORCE BASE
NAS    - NAVAL AIR STATION
         EL CENTRO NAS IS EL CENTRO NAVAL AIR STATION
N/A    - NOT AVAILABLE





USA.gov is the U.S. government's official web portal to all federal, state and local government web resources and services.